Погода в Осыне

Россия / Псковская область     56°09′12″N   28°40′20″E
темп.,
°C
ветер,
м/с
пор.,
м/с
влажн.,
%
обл.,
%
осадки,
мм/ч
давл.,
гПа
погр.,
м
18 апреля, вс
вс1800:00+8св3108927 0.0 1022272
03:00+7ссв399124 0.0 1022260
06:00+5ссв398963 0.0 1022223
09:00+9св495789 0.0 1022495
12:00+14всв57370 0.0 10221144
15:00+15всв57364 0.0 10221705
18:00+14всв46415 0.0 10221955
21:00+8ссв39625 0.0 1023194
19 апреля, пн
пн1900:00+6св38735 0.0 1024189
03:00+5всв3108013 0.0 1025256
06:00+4всв38875 0.0 1025208
09:00+8всв36665 0.0 1025493
12:00+12всв455127 0.0 10241651
15:00+11всв455792 0.1 10241288
18:00+9всв366694 0.0 1024818
21:00+8в3776100 0.2 1024462
20 апреля, вт
вт2000:00+6всв3780100 0.0 1024419
03:00+6всв2681100 0.1 1023332
06:00+5всв2781100 0.0 1022359
09:00+6всв457596 0.1 1021845
12:00+7всв4561100 0.1 10191267
15:00+8в3554100 0.2 10181258
18:00+8всв3450100 0.0 10161428
21:00+6в2673100 0.1 1015334
21 апреля, ср
ср2100:00+2св248816 0.0 101391
03:00+1с259529 0.0 1011106
06:00+1ссз2794100 0.0 1009229
09:00+4ссз4772100 0.0 1007771
12:00+6сз5761100 0.0 10061294
15:00+6зсз4862100 0.1 10061473
18:00+8зсз3856100 0.1 10061471
21:00+5юз217665 0.1 100712
22 апреля, чт
чт2200:00+3юз388982 0.0 1008150
03:00+3ююз3108987 0.0 1009207
06:00+2ююз389219 0.0 1009162
09:00+8ююз37665 0.0 1009439
12:00+13ю585074 0.1 10091750
15:00+12юз585998 1.0 10091604
18:00+9зюз5681100 1.7 1009996
21:00+6юв2391100 4.8 1010151